Overview Statistics Trail Chart Weather Telemetry Raw packets
 

This is the latest recevied weather packets stored in our database for station/object KBTL-WX. If no packets are shown the sender has not sent any weather packets the latest 10 day(s).

<< 15 16 17 18 19 20 21 >>
Time Temp. Humidity Pressure Rain* Wind** Luminosity Snow
1777589114 10° C 42% 983.2 hPa 0 mm - - -
1777588226 10° C 41% 983.7 hPa 0 mm - - -
1777587314 10° C 41% 983.7 hPa 0 mm - - -
1777586436 10° C 41% 983.7 hPa 0 mm - - -
1777585514 10.56° C 41% 982.6 hPa 0 mm - - -
1777584630 10.56° C 39% 983.4 hPa 0 mm - - -
1777583715 10.56° C 39% 983.4 hPa 0 mm - - -
1777582830 10.56° C 39% 983.4 hPa 0 mm - - -
1777581915 10.56° C 38% 983.3 hPa 0 mm - - -
1777581031 10.56° C 40% 982.7 hPa 0 mm - - -
1777580114 10.56° C 40% 982.7 hPa 0 mm - - -
1777579236 10.56° C 40% 982.7 hPa 0 mm - - -
1777578314 10.56° C 41% 982.7 hPa 0 mm - - -
1777577426 11.11° C 41% 982.7 hPa 0 mm - - -
1777576514 10.56° C 41% 982.7 hPa 0 mm - - -
1777575635 10.56° C 41% 982.7 hPa 0 mm - - -
1777574714 10.56° C 41% 982.8 hPa 0 mm - - -
1777573825 10.56° C 46% 982.6 hPa 0 mm - - -
1777572912 10° C 46% 982.5 hPa 0 mm - - -
1777572036 10° C 46% 982.5 hPa 0 mm - - -
1777571113 9.44° C 50% 983.1 hPa 0 mm - - -
1777570230 9.44° C 53% 983.3 hPa 0 mm - - -
1777569314 8.89° C 53% 983.3 hPa 0 mm - - -
1777568435 8.89° C 53% 983.3 hPa 0 mm - - -
1777567512 8.89° C 62% 982.1 hPa 0 mm - - -

* Rain latest hour (hover to see other rain measurements)
** Current wind speed in m/s (hover to see current wind gust speed)